Location: Unspecified
(0.0000°N, 0.0000°E)
Time: 01:17:13
(UTC+00:00)

CUBEBUG 2 - Visible Passes

Search period start: 22 July 2018 00:00
Search period end: 01 August 2018 00:00
Orbit: 585 x 700 km, 97.6° (Epoch: 21 July)

Date Brightness Start Highest point End Pass type
(mag) Time Alt. Az. Time Alt. Az. Time Alt. Az.
22 Jul ? 05:29:41 10° ENE 05:32:25 16° ESE 05:35:14 10° SE visible
22 Jul ? 19:18:54 10° SW 19:21:20 15° WSW 19:23:44 10° WNW visible
24 Jul ? 18:29:12 10° S 18:33:37 68° WSW 18:37:52 10° NNW visible
25 Jul ? 18:54:02 10° SSW 18:57:53 29° WSW 19:01:36 10° NW visible
26 Jul ? 05:30:16 10° ENE 05:33:14 17° ESE 05:36:15 10° SE visible
26 Jul ? 19:19:57 10° SW 19:22:06 13° WSW 19:24:13 10° WNW visible
28 Jul ? 18:30:04 10° S 18:34:23 64° WSW 18:38:33 10° NNW visible
29 Jul ? 18:54:56 10° SSW 18:58:38 28° WSW 19:02:14 10° NW visible
30 Jul ? 05:30:52 10° ENE 05:34:01 19° ESE 05:37:15 10° SE visible
30 Jul ? 19:21:01 10° SW 19:22:52 12° WSW 19:24:40 10° WNW visible
